Banff, Alberta

10:54 PM MST on December 17, 2017 (GMT -0700)
Banff

Weather History for CWZG - April, 2013

Change the Weather History Date:

Wednesday, April 24, 2013

  Actual Average Record
Temperature  
Mean Temperature 36 °F -  
Max Temperature 49 °F - - ()
Min Temperature 24 °F - - ()
Degree Days  
Heating Degree Days 28    
Moisture  
Dew Point 14 °F    
Average Humidity 43    
Maximum Humidity 67    
Minimum Humidity 23    
Precipitation  
Precipitation 0.00 in - - ()
Sea Level Pressure  
Sea Level Pressure 30.12 in    
Wind  
Wind Speed 5 mph ()    
Max Wind Speed 15 mph    
Max Gust Speed 25 mph    
T = Trace of Precipitation, MM = Missing Value Source: Averaged Metar Reports

Daily Weather History Graph

Daily Weather History Graph

Search for Another Location

Airport or City:

Trip Planner

Search our weather history database for the weather conditions in past years. The results will help you decide how hot, cold, wet, or windy it might be!

Date:

Astronomy

Apr. 24, 2013 Rise Set
Actual Time 6:27 AM MDT 8:53 PM MDT
Civil Twilight 5:51 AM MDT 9:30 PM MDT
Nautical Twilight 5:04 AM MDT 10:17 PM MDT
Astronomical Twilight 4:10 AM MDT 11:12 PM MDT
Moon 7:59 PM MDT (4/24) 5:41 AM MDT (4/24)
Length of Visible Light 15h 39m
Length of Day
14h 26m
Waxing Gibbous, 98% of the Moon is Illuminated
Apr 24
Waxing Gibbous
Apr 25
Full
May 2
Last Quarter
May 9
New
May 17
First Quarter

Hourly Weather History & Observations

Time (MDT) Temp. Windchill Dew Point Humidity Pressure Visibility Wind Dir Wind Speed Gust Speed Precip Events Conditions
12:00 AM 25.5 °F - 14.2 °F 62% 30.28 in - ENE 1.2 mph - N/A   Unknown
1:00 AM 25.3 °F - 14.2 °F 63% 30.29 in - East 1.2 mph - N/A   Unknown
2:00 AM 24.3 °F - 14.5 °F 67% 30.29 in - NE 1.2 mph - N/A   Unknown
3:00 AM 24.1 °F - 13.1 °F 63% 30.28 in - NW 1.2 mph - N/A   Unknown
4:00 AM 24.4 °F - 13.6 °F 64% 30.25 in - NNW 1.2 mph - N/A   Unknown
5:00 AM 26.4 °F 18.9 °F 14.7 °F 61% 30.25 in - SW 6.9 mph - N/A   Unknown
6:00 AM 25.7 °F 19.0 °F 14.5 °F 63% 30.24 in - SW 5.8 mph - N/A   Unknown
7:00 AM 24.8 °F 19.1 °F 14.7 °F 66% 30.24 in - WSW 4.6 mph - N/A   Unknown
8:00 AM 27.5 °F 20.2 °F 14.2 °F 57% 30.22 in - SW 6.9 mph - N/A   Unknown
9:00 AM 31.6 °F 23.7 °F 13.5 °F 47% 30.21 in - WSW 9.2 mph - N/A   Unknown
10:00 AM 38.5 °F 33.4 °F 12.4 °F 34% 30.17 in - WSW 6.9 mph - N/A   Unknown
11:00 AM 43.9 °F 38.8 °F 11.1 °F 26% 30.13 in - WSW 9.2 mph 18.4 mph N/A   Unknown
12:00 PM 46.6 °F - 11.3 °F 24% 30.09 in - WSW 8.1 mph 17.3 mph N/A   Unknown
1:00 PM 47.3 °F - 11.1 °F 23% 30.06 in - WSW 10.4 mph 20.7 mph N/A   Unknown
2:00 PM 47.5 °F - 10.9 °F 23% 30.03 in - WSW 12.7 mph 24.2 mph N/A   Unknown
3:00 PM 48.2 °F - 11.3 °F 23% 30.01 in - WSW 9.2 mph 20.7 mph N/A   Unknown
4:00 PM 49.8 °F - 12.6 °F 23% 29.96 in - SW 15.0 mph 25.3 mph N/A   Unknown
5:00 PM 48.9 °F - 15.6 °F 27% 29.96 in - WSW 12.7 mph 23.0 mph N/A   Unknown
6:00 PM 47.3 °F - 15.4 °F 28% 29.96 in - WSW 10.4 mph 19.6 mph N/A   Unknown
7:00 PM 45.9 °F 42.3 °F 15.8 °F 30% 29.95 in - West 6.9 mph 18.4 mph N/A   Unknown
9:00 PM 42.8 °F 39.3 °F 17.4 °F 36% 29.94 in - West 5.8 mph - N/A   Unknown
10:00 PM 41.5 °F 39.6 °F 18.7 °F 40% 29.94 in - WNW 3.5 mph - N/A   Unknown
11:00 PM 39.4 °F - 20.1 °F 46% 29.93 in - WSW 2.3 mph - N/A   Unknown